Time,TemperatureF,DewpointF,PressureIn,WindDirection,WindDirectionDegrees,WindSpeedMPH,WindSpeedGustMPH,Humidity,HourlyPrecipIn,Conditions,Clouds,dailyrainin,SoftwareType,DateUTC
2013-05-11 00:01:00,64.1,60.0,29.96,SW,227,0.0,0.0,88,0.05,,,0.00,WX3IN1Plus v1.30,2013-05-11 04:01:00,
2013-05-11 00:06:00,64.0,59.9,29.96,SW,227,0.0,0.0,88,0.03,,,0.00,WX3IN1Plus v1.30,2013-05-11 04:06:00,
2013-05-11 00:11:00,64.2,60.0,29.96,SW,227,0.0,0.0,88,0.02,,,0.00,WX3IN1Plus v1.30,2013-05-11 04:11:00,
2013-05-11 00:16:00,63.9,60.0,29.95,SW,227,0.0,0.0,89,0.02,,,0.00,WX3IN1Plus v1.30,2013-05-11 04:16:00,
2013-05-11 00:21:00,64.1,60.4,29.95,SW,227,0.0,0.0,89,0.02,,,0.00,WX3IN1Plus v1.30,2013-05-11 04:21:00,
2013-05-11 00:26:00,64.0,60.0,29.94,SW,227,0.0,0.0,89,0.00,,,0.00,WX3IN1Plus v1.30,2013-05-11 04:26:00,
2013-05-11 00:31:00,64.2,60.4,29.94,SW,227,0.0,0.0,89,0.00,,,0.00,WX3IN1Plus v1.30,2013-05-11 04:31:00,
2013-05-11 00:36:00,64.0,60.0,29.94,SW,227,0.0,0.0,89,0.00,,,0.00,WX3IN1Plus v1.30,2013-05-11 04:36:00,
2013-05-11 00:41:00,64.1,60.4,29.94,SW,227,0.0,0.0,89,0.00,,,0.00,WX3IN1Plus v1.30,2013-05-11 04:41:00,
2013-05-11 00:46:00,64.0,60.0,29.94,SW,227,0.0,0.0,89,0.00,,,0.00,WX3IN1Plus v1.30,2013-05-11 04:46:00,
2013-05-11 00:51:00,64.0,60.0,29.95,SW,227,0.0,0.0,89,0.00,,,0.00,WX3IN1Plus v1.30,2013-05-11 04:51:00,
2013-05-11 00:56:00,64.2,60.4,29.95,SW,227,0.0,0.0,89,0.00,,,0.00,WX3IN1Plus v1.30,2013-05-11 04:56:00,
2013-05-11 01:01:00,64.0,60.0,29.94,SW,227,0.0,0.0,89,0.00,,,0.00,WX3IN1Plus v1.30,2013-05-11 05:01:00,
2013-05-11 01:06:00,64.0,60.0,29.93,SW,227,0.0,0.0,89,0.01,,,0.01,WX3IN1Plus v1.30,2013-05-11 05:06:00,
2013-05-11 01:11:00,64.1,60.4,29.93,SW,227,0.0,0.0,89,0.01,,,0.01,WX3IN1Plus v1.30,2013-05-11 05:11:00,
2013-05-11 01:16:00,64.0,60.4,29.92,SW,227,0.0,0.0,90,0.01,,,0.01,WX3IN1Plus v1.30,2013-05-11 05:16:00,
2013-05-11 01:21:00,64.1,60.8,29.91,SW,227,0.0,0.0,90,0.01,,,0.01,WX3IN1Plus v1.30,2013-05-11 05:21:00,
2013-05-11 01:26:00,64.0,60.4,29.90,SW,227,0.0,0.0,90,0.01,,,0.01,WX3IN1Plus v1.30,2013-05-11 05:26:00,
2013-05-11 01:31:00,63.8,60.4,29.90,SW,227,0.0,0.0,90,0.01,,,0.01,WX3IN1Plus v1.30,2013-05-11 05:31:00,
2013-05-11 01:36:00,63.9,60.4,29.91,SW,223,0.0,3.4,90,0.01,,,0.01,WX3IN1Plus v1.30,2013-05-11 05:36:00,
2013-05-11 01:41:00,63.8,60.4,29.92,WSW,248,1.6,1.7,90,0.01,,,0.01,WX3IN1Plus v1.30,2013-05-11 05:41:00,
2013-05-11 01:46:00,63.9,60.4,29.92,SW,225,0.0,2.7,90,0.01,,,0.01,WX3IN1Plus v1.30,2013-05-11 05:46:00,
2013-05-11 01:51:00,63.8,60.4,29.92,SSW,195,0.9,3.9,90,0.01,,,0.01,WX3IN1Plus v1.30,2013-05-11 05:51:00,
2013-05-11 01:56:00,63.7,60.4,29.92,South,184,0.0,6.4,90,0.01,,,0.01,WX3IN1Plus v1.30,2013-05-11 05:56:00,
2013-05-11 02:01:00,63.8,60.4,29.92,WSW,240,0.0,4.2,90,0.01,,,0.01,WX3IN1Plus v1.30,2013-05-11 06:01:00,
2013-05-11 02:06:00,63.7,60.4,29.92,South,188,0.0,3.2,90,0.00,,,0.01,WX3IN1Plus v1.30,2013-05-11 06:06:00,
2013-05-11 02:11:00,63.7,60.4,29.91,South,188,0.0,0.0,90,0.00,,,0.01,WX3IN1Plus v1.30,2013-05-11 06:11:00,
2013-05-11 02:16:00,63.6,60.0,29.91,WSW,255,0.0,1.4,90,0.00,,,0.01,WX3IN1Plus v1.30,2013-05-11 06:16:00,
2013-05-11 02:21:00,63.6,60.0,29.91,WSW,255,0.0,0.0,90,0.00,,,0.01,WX3IN1Plus v1.30,2013-05-11 06:21:00,
2013-05-11 02:26:00,63.7,60.4,29.90,WSW,255,0.0,0.0,90,0.00,,,0.01,WX3IN1Plus v1.30,2013-05-11 06:26:00,
2013-05-11 02:31:00,63.6,60.0,29.90,SW,234,0.0,3.4,90,0.00,,,0.01,WX3IN1Plus v1.30,2013-05-11 06:31:00,
2013-05-11 02:36:00,63.5,60.0,29.90,SW,234,0.0,0.0,90,0.00,,,0.01,WX3IN1Plus v1.30,2013-05-11 06:36:00,
2013-05-11 02:41:00,63.4,59.9,29.90,WSW,240,1.9,1.9,90,0.00,,,0.01,WX3IN1Plus v1.30,2013-05-11 06:41:00,
2013-05-11 02:46:00,63.6,60.0,29.91,SW,232,0.0,2.7,90,0.00,,,0.01,WX3IN1Plus v1.30,2013-05-11 06:46:00,
2013-05-11 02:51:00,63.4,59.9,29.91,SW,232,0.0,0.0,90,0.00,,,0.01,WX3IN1Plus v1.30,2013-05-11 06:51:00,
2013-05-11 02:56:00,63.3,59.9,29.92,SW,232,0.0,0.0,90,0.00,,,0.01,WX3IN1Plus v1.30,2013-05-11 06:56:00,
2013-05-11 03:01:00,63.1,59.5,29.91,SW,232,0.0,0.0,90,0.00,,,0.01,WX3IN1Plus v1.30,2013-05-11 07:01:00,
2013-05-11 03:06:00,63.2,59.9,29.91,WSW,239,0.0,4.2,90,0.00,,,0.01,WX3IN1Plus v1.30,2013-05-11 07:06:00,
2013-05-11 03:11:00,63.5,60.0,29.91,SW,216,0.0,3.7,90,0.00,,,0.01,WX3IN1Plus v1.30,2013-05-11 07:11:00,
2013-05-11 03:16:00,63.4,59.9,29.91,SW,216,0.0,0.0,90,0.00,,,0.01,WX3IN1Plus v1.30,2013-05-11 07:16:00,
2013-05-11 03:21:00,63.3,59.9,29.90,SW,216,0.0,0.0,90,0.00,,,0.01,WX3IN1Plus v1.30,2013-05-11 07:21:00,
2013-05-11 03:26:00,63.1,59.5,29.90,WSW,251,1.6,4.5,90,0.00,,,0.01,WX3IN1Plus v1.30,2013-05-11 07:26:00,
2013-05-11 03:31:00,63.2,59.9,29.90,WSW,250,2.2,2.2,90,0.00,,,0.01,WX3IN1Plus v1.30,2013-05-11 07:31:00,
2013-05-11 03:36:00,63.1,59.5,29.89,WSW,244,0.0,2.5,90,0.00,,,0.01,WX3IN1Plus v1.30,2013-05-11 07:36:00,
2013-05-11 03:41:00,63.1,59.5,29.89,WSW,244,0.0,0.0,90,0.00,,,0.01,WX3IN1Plus v1.30,2013-05-11 07:41:00,
2013-05-11 03:46:00,63.1,59.5,29.89,South,191,0.0,2.3,90,0.00,,,0.01,WX3IN1Plus v1.30,2013-05-11 07:46:00,
2013-05-11 03:51:00,62.9,59.3,29.89,West,271,1.4,4.1,90,0.00,,,0.01,WX3IN1Plus v1.30,2013-05-11 07:51:00,
2013-05-11 03:56:00,63.0,59.5,29.88,SSW,203,0.0,4.8,90,0.00,,,0.01,WX3IN1Plus v1.30,2013-05-11 07:56:00,
2013-05-11 04:01:00,62.9,59.3,29.88,SSW,208,0.0,2.4,90,0.00,,,0.01,WX3IN1Plus v1.30,2013-05-11 08:01:00,
2013-05-11 04:06:00,62.8,59.3,29.88,WSW,250,4.8,6.1,90,0.00,,,0.01,WX3IN1Plus v1.30,2013-05-11 08:06:00,
2013-05-11 04:11:00,62.9,59.3,29.88,WSW,244,3.6,5.4,90,0.00,,,0.01,WX3IN1Plus v1.30,2013-05-11 08:11:00,
2013-05-11 04:16:00,62.9,59.9,29.88,SSW,208,0.0,5.8,91,0.00,,,0.01,WX3IN1Plus v1.30,2013-05-11 08:16:00,
2013-05-11 04:21:00,62.9,59.9,29.88,SW,232,0.0,6.0,91,0.00,,,0.01,WX3IN1Plus v1.30,2013-05-11 08:21:00,
2013-05-11 04:26:00,62.7,59.9,29.88,WSW,244,2.6,5.2,91,0.00,,,0.01,WX3IN1Plus v1.30,2013-05-11 08:26:00,
2013-05-11 04:31:00,62.9,59.9,29.88,SSW,195,0.0,4.4,91,0.00,,,0.01,WX3IN1Plus v1.30,2013-05-11 08:31:00,
2013-05-11 04:36:00,63.0,60.0,29.87,SW,229,0.0,4.0,91,0.00,,,0.01,WX3IN1Plus v1.30,2013-05-11 08:36:00,
2013-05-11 04:41:00,62.9,59.9,29.88,WSW,248,1.1,5.4,91,0.00,,,0.01,WX3IN1Plus v1.30,2013-05-11 08:41:00,
2013-05-11 04:46:00,62.8,59.9,29.87,SW,236,0.0,4.5,91,0.00,,,0.01,WX3IN1Plus v1.30,2013-05-11 08:46:00,
2013-05-11 04:51:00,63.0,60.0,29.88,SW,229,2.7,6.0,91,0.00,,,0.01,WX3IN1Plus v1.30,2013-05-11 08:51:00,
2013-05-11 04:56:00,62.8,59.9,29.87,SW,227,1.1,7.5,91,0.00,,,0.01,WX3IN1Plus v1.30,2013-05-11 08:56:00,
2013-05-11 05:01:00,63.0,60.0,29.88,WSW,251,1.8,5.8,91,0.00,,,0.01,WX3IN1Plus v1.30,2013-05-11 09:01:00,
2013-05-11 05:06:00,62.9,59.9,29.87,WSW,240,0.0,5.7,91,0.00,,,0.01,WX3IN1Plus v1.30,2013-05-11 09:06:00,
2013-05-11 05:11:00,63.0,60.0,29.87,SSW,201,0.0,5.8,91,0.00,,,0.01,WX3IN1Plus v1.30,2013-05-11 09:11:00,
2013-05-11 05:16:00,62.9,59.3,29.87,West,278,1.8,6.8,90,0.00,,,0.01,WX3IN1Plus v1.30,2013-05-11 09:16:00,
2013-05-11 05:21:00,62.9,59.9,29.87,WSW,237,0.0,6.3,91,0.00,,,0.01,WX3IN1Plus v1.30,2013-05-11 09:21:00,
2013-05-11 05:26:00,63.1,59.5,29.87,West,281,0.0,3.4,90,0.00,,,0.01,WX3IN1Plus v1.30,2013-05-11 09:26:00,
2013-05-11 05:31:00,62.9,59.9,29.87,SW,232,1.1,4.3,91,0.00,,,0.01,WX3IN1Plus v1.30,2013-05-11 09:31:00,
2013-05-11 05:36:00,62.8,59.9,29.87,West,262,1.1,5.6,91,0.00,,,0.01,WX3IN1Plus v1.30,2013-05-11 09:36:00,
2013-05-11 05:41:00,62.7,59.9,29.87,SSW,194,0.0,4.5,91,0.00,,,0.01,WX3IN1Plus v1.30,2013-05-11 09:41:00,
2013-05-11 05:46:00,62.9,59.3,29.87,West,268,0.0,4.9,90,0.00,,,0.01,WX3IN1Plus v1.30,2013-05-11 09:46:00,
2013-05-11 05:51:00,62.9,59.9,29.87,West,268,0.0,0.0,91,0.00,,,0.01,WX3IN1Plus v1.30,2013-05-11 09:51:00,
2013-05-11 05:56:00,62.9,59.9,29.87,WSW,239,0.8,2.7,91,0.00,,,0.01,WX3IN1Plus v1.30,2013-05-11 09:56:00,
2013-05-11 06:01:00,62.7,59.9,29.86,WSW,239,0.0,0.9,91,0.00,,,0.01,WX3IN1Plus v1.30,2013-05-11 10:01:00,
2013-05-11 06:06:00,62.7,59.9,29.86,WSW,239,0.0,0.0,91,0.00,,,0.01,WX3IN1Plus v1.30,2013-05-11 10:06:00,
2013-05-11 06:11:00,62.8,59.9,29.86,WSW,239,0.0,0.0,91,0.00,,,0.01,WX3IN1Plus v1.30,2013-05-11 10:11:00,
2013-05-11 06:16:00,62.6,59.9,29.86,WSW,246,0.0,3.2,91,0.00,,,0.01,WX3IN1Plus v1.30,2013-05-11 10:16:00,
2013-05-11 06:21:00,62.7,59.9,29.86,WSW,244,0.0,2.6,91,0.00,,,0.01,WX3IN1Plus v1.30,2013-05-11 10:21:00,
2013-05-11 06:26:00,62.7,59.9,29.86,WSW,237,1.0,3.6,91,0.00,,,0.01,WX3IN1Plus v1.30,2013-05-11 10:26:00,
2013-05-11 06:31:00,62.8,59.9,29.86,WSW,237,0.0,1.2,91,0.00,,,0.01,WX3IN1Plus v1.30,2013-05-11 10:31:00,
2013-05-11 06:36:00,62.7,59.9,29.86,WSW,237,0.0,0.0,91,0.00,,,0.01,WX3IN1Plus v1.30,2013-05-11 10:36:00,
2013-05-11 06:41:00,62.8,59.9,29.86,WSW,237,0.0,0.0,91,0.00,,,0.01,WX3IN1Plus v1.30,2013-05-11 10:41:00,
2013-05-11 06:46:00,62.7,59.9,29.86,WSW,237,0.0,0.0,91,0.00,,,0.01,WX3IN1Plus v1.30,2013-05-11 10:46:00,
2013-05-11 06:51:00,62.8,59.9,29.86,WSW,237,0.0,0.0,91,0.00,,,0.01,WX3IN1Plus v1.30,2013-05-11 10:51:00,
2013-05-11 06:56:00,62.9,59.3,29.86,WSW,237,0.0,0.0,90,0.00,,,0.01,WX3IN1Plus v1.30,2013-05-11 10:56:00,
2013-05-11 07:01:00,63.1,60.0,29.86,WSW,237,0.0,0.0,91,0.00,,,0.01,WX3IN1Plus v1.30,2013-05-11 11:01:00,
2013-05-11 07:06:00,63.2,60.4,29.86,WSW,237,0.0,0.0,91,0.00,,,0.01,WX3IN1Plus v1.30,2013-05-11 11:06:00,
2013-05-11 07:11:00,63.2,60.4,29.86,WSW,237,0.0,0.0,91,0.00,,,0.01,WX3IN1Plus v1.30,2013-05-11 11:11:00,
2013-05-11 07:16:00,63.3,60.4,29.87,West,275,1.4,2.7,91,0.00,,,0.01,WX3IN1Plus v1.30,2013-05-11 11:16:00,
2013-05-11 07:21:00,63.6,60.8,29.87,SW,225,0.0,3.6,91,0.00,,,0.01,WX3IN1Plus v1.30,2013-05-11 11:21:00,
2013-05-11 07:26:00,63.6,60.8,29.87,South,191,0.0,4.0,91,0.00,,,0.01,WX3IN1Plus v1.30,2013-05-11 11:26:00,
2013-05-11 07:31:00,63.2,60.4,29.87,SSW,198,0.0,3.6,91,0.00,,,0.01,WX3IN1Plus v1.30,2013-05-11 11:31:00,
2013-05-11 07:36:00,63.4,60.4,29.86,SSW,198,0.0,0.0,91,0.00,,,0.01,WX3IN1Plus v1.30,2013-05-11 11:36:00,
2013-05-11 07:41:00,63.6,60.8,29.86,SSW,198,0.0,0.0,91,0.00,,,0.01,WX3IN1Plus v1.30,2013-05-11 11:41:00,
2013-05-11 07:46:00,63.6,60.8,29.86,SW,216,0.0,2.1,91,0.00,,,0.01,WX3IN1Plus v1.30,2013-05-11 11:46:00,
2013-05-11 07:51:00,63.7,60.9,29.86,SW,216,0.0,0.0,91,0.00,,,0.01,WX3IN1Plus v1.30,2013-05-11 11:51:00,
2013-05-11 07:56:00,63.6,60.8,29.86,SW,216,0.0,0.0,91,0.00,,,0.01,WX3IN1Plus v1.30,2013-05-11 11:56:00,
2013-05-11 08:01:00,64.0,60.9,29.86,SW,219,0.0,2.4,91,0.00,,,0.01,WX3IN1Plus v1.30,2013-05-11 12:01:00,
2013-05-11 08:06:00,64.2,61.3,29.86,WNW,299,0.8,2.7,91,0.00,,,0.01,WX3IN1Plus v1.30,2013-05-11 12:06:00,
2013-05-11 08:11:00,64.2,60.8,29.86,SSW,196,0.0,3.7,90,0.00,,,0.01,WX3IN1Plus v1.30,2013-05-11 12:11:00,
2013-05-11 08:17:00,64.3,60.8,29.86,SW,216,0.0,3.9,90,0.00,,,0.01,WX3IN1Plus v1.30,2013-05-11 12:17:00,
2013-05-11 08:22:00,64.3,60.8,29.86,WSW,257,0.0,3.9,90,0.00,,,0.01,WX3IN1Plus v1.30,2013-05-11 12:22:00,
2013-05-11 08:27:00,64.6,61.3,29.86,West,265,0.0,6.3,90,0.00,,,0.01,WX3IN1Plus v1.30,2013-05-11 12:27:00,
2013-05-11 08:32:00,64.7,61.3,29.86,WSW,241,1.8,4.1,90,0.00,,,0.01,WX3IN1Plus v1.30,2013-05-11 12:32:00,
2013-05-11 08:37:00,64.5,60.9,29.86,WSW,241,0.0,3.0,90,0.00,,,0.01,WX3IN1Plus v1.30,2013-05-11 12:37:00,
2013-05-11 08:42:00,64.6,60.9,29.86,WSW,243,1.6,7.7,89,0.00,,,0.01,WX3IN1Plus v1.30,2013-05-11 12:42:00,
2013-05-11 08:47:00,64.7,60.9,29.85,SSW,195,0.0,5.3,89,0.00,,,0.01,WX3IN1Plus v1.30,2013-05-11 12:47:00,
2013-05-11 08:52:00,65.0,61.3,29.86,SSW,209,0.0,4.5,89,0.00,,,0.01,WX3IN1Plus v1.30,2013-05-11 12:52:00,
2013-05-11 08:57:00,65.2,61.5,29.86,SSW,206,3.5,6.0,89,0.00,,,0.01,WX3IN1Plus v1.30,2013-05-11 12:57:00,
2013-05-11 09:02:00,65.2,61.3,29.86,WSW,239,0.9,5.9,88,0.00,,,0.01,WX3IN1Plus v1.30,2013-05-11 13:02:00,
2013-05-11 09:07:00,65.3,61.3,29.86,SW,232,0.8,6.2,88,0.00,,,0.01,WX3IN1Plus v1.30,2013-05-11 13:07:00,
2013-05-11 09:28:00,65.4,-74.3,29.85,SW,236,0.0,0.0,0,0.00,,,0.01,WX3IN1Plus v1.30,2013-05-11 13:28:00,
2013-05-11 09:33:00,65.7,61.5,29.77,SW,234,1.8,6.0,87,0.00,,,0.01,WX3IN1Plus v1.30,2013-05-11 13:33:00,
2013-05-11 09:38:00,65.8,61.5,29.65,WNW,295,0.8,6.3,87,0.00,,,0.01,WX3IN1Plus v1.30,2013-05-11 13:38:00,
2013-05-11 09:43:00,66.0,61.5,29.86,WNW,291,1.1,5.9,87,0.00,,,0.01,WX3IN1Plus v1.30,2013-05-11 13:43:00,
2013-05-11 09:48:00,66.1,61.8,29.85,SW,223,0.0,6.9,87,0.00,,,0.01,WX3IN1Plus v1.30,2013-05-11 13:48:00,
2013-05-11 09:53:00,66.0,61.8,29.85,WSW,239,0.0,4.6,88,0.00,,,0.01,WX3IN1Plus v1.30,2013-05-11 13:53:00,
2013-05-11 09:58:00,66.0,61.5,29.84,WSW,243,2.7,4.5,87,0.00,,,0.01,WX3IN1Plus v1.30,2013-05-11 13:58:00,
2013-05-11 10:03:00,66.2,61.8,29.84,West,275,0.9,3.9,87,0.00,,,0.01,WX3IN1Plus v1.30,2013-05-11 14:03:00,
2013-05-11 10:08:00,66.3,61.8,29.78,WSW,243,0.0,4.3,87,0.00,,,0.01,WX3IN1Plus v1.30,2013-05-11 14:08:00,
2013-05-11 10:13:00,66.5,62.4,29.85,WSW,253,1.6,4.0,88,0.00,,,0.01,WX3IN1Plus v1.30,2013-05-11 14:13:00,
2013-05-11 10:18:00,66.8,62.4,29.82,WSW,240,2.4,3.2,87,0.00,,,0.01,WX3IN1Plus v1.30,2013-05-11 14:18:00,
2013-05-11 10:23:00,67.0,62.7,29.74,WNW,286,0.0,5.2,87,0.01,,,0.02,WX3IN1Plus v1.30,2013-05-11 14:23:00,
2013-05-11 10:28:00,67.3,62.9,29.84,NW,322,0.0,5.0,87,0.01,,,0.02,WX3IN1Plus v1.30,2013-05-11 14:28:00,
2013-05-11 10:33:00,67.4,62.7,29.70,WSW,255,1.9,5.9,86,0.01,,,0.02,WX3IN1Plus v1.30,2013-05-11 14:33:00,
2013-05-11 10:38:00,67.7,62.9,29.68,WSW,251,3.2,7.5,86,0.02,,,0.03,WX3IN1Plus v1.30,2013-05-11 14:38:00,
2013-05-11 10:43:00,67.4,62.7,29.78,WSW,243,4.5,4.9,86,0.02,,,0.03,WX3IN1Plus v1.30,2013-05-11 14:43:00,
2013-05-11 10:48:00,67.9,63.3,29.83,NW,317,1.4,5.2,86,0.02,,,0.03,WX3IN1Plus v1.30,2013-05-11 14:48:00,
2013-05-11 10:53:00,68.1,63.5,29.83,NNE,30,0.4,4.4,86,0.08,,,0.09,WX3IN1Plus v1.30,2013-05-11 14:53:00,
2013-05-11 10:58:00,68.0,63.5,29.84,West,272,2.7,5.9,86,0.08,,,0.09,WX3IN1Plus v1.30,2013-05-11 14:58:00,
2013-05-11 11:03:00,68.5,63.5,29.84,West,270,2.2,5.8,85,0.08,,,0.09,WX3IN1Plus v1.30,2013-05-11 15:03:00,
2013-05-11 11:08:00,68.8,63.8,29.83,WSW,251,0.0,7.0,85,0.09,,,0.00,WX3IN1Plus v1.30,2013-05-11 15:08:00,
2013-05-11 11:13:00,69.0,63.8,29.83,SW,225,0.4,7.5,84,0.09,,,0.00,WX3IN1Plus v1.30,2013-05-11 15:13:00,
2013-05-11 11:18:00,69.5,63.8,29.83,SSW,208,3.7,8.1,83,0.09,,,0.00,WX3IN1Plus v1.30,2013-05-11 15:18:00,
2013-05-11 11:23:00,69.4,63.5,29.82,West,281,0.0,6.5,83,0.08,,,0.00,WX3IN1Plus v1.30,2013-05-11 15:23:00,
2013-05-11 11:28:00,69.6,63.5,29.82,SW,217,1.3,9.0,82,0.08,,,0.00,WX3IN1Plus v1.30,2013-05-11 15:28:00,
2013-05-11 11:33:00,69.8,63.3,29.82,WSW,246,3.4,8.2,80,0.08,,,0.00,WX3IN1Plus v1.30,2013-05-11 15:33:00,
2013-05-11 11:38:00,70.1,63.5,29.82,NW,317,1.4,6.5,81,0.07,,,0.00,WX3IN1Plus v1.30,2013-05-11 15:38:00,
2013-05-11 11:43:00,70.6,63.8,29.81,SW,225,8.7,11.1,80,0.08,,,0.01,WX3IN1Plus v1.30,2013-05-11 15:43:00,
2013-05-11 11:48:00,70.7,63.5,29.82,WNW,291,0.9,12.7,79,0.08,,,0.01,WX3IN1Plus v1.30,2013-05-11 15:48:00,
2013-05-11 11:53:00,71.2,64.4,29.81,WSW,246,4.7,7.9,80,0.02,,,0.01,WX3IN1Plus v1.30,2013-05-11 15:53:00,
2013-05-11 11:58:00,71.6,63.5,29.81,WSW,250,4.2,8.0,76,0.02,,,0.01,WX3IN1Plus v1.30,2013-05-11 15:58:00,
2013-05-11 12:03:00,72.0,63.3,29.81,West,264,6.3,9.1,75,0.02,,,0.01,WX3IN1Plus v1.30,2013-05-11 16:03:00,
2013-05-11 12:08:00,72.2,64.2,29.81,WSW,240,4.2,8.7,76,0.01,,,0.01,WX3IN1Plus v1.30,2013-05-11 16:08:00,
2013-05-11 12:13:00,72.7,63.5,29.80,WSW,243,5.1,11.0,73,0.01,,,0.01,WX3IN1Plus v1.30,2013-05-11 16:13:00,
2013-05-11 12:18:00,72.9,63.5,29.80,SW,232,2.2,7.7,73,0.01,,,0.01,WX3IN1Plus v1.30,2013-05-11 16:18:00,
2013-05-11 12:23:00,73.2,62.9,29.80,SW,215,1.4,8.3,71,0.01,,,0.01,WX3IN1Plus v1.30,2013-05-11 16:23:00,
2013-05-11 12:28:00,73.4,62.7,29.80,WSW,255,3.6,8.4,70,0.01,,,0.01,WX3IN1Plus v1.30,2013-05-11 16:28:00,
2013-05-11 12:33:00,73.3,62.9,29.80,WSW,244,3.7,9.9,71,0.01,,,0.01,WX3IN1Plus v1.30,2013-05-11 16:33:00,
2013-05-11 12:38:00,73.1,62.9,29.80,WSW,241,6.1,6.1,71,0.01,,,0.01,WX3IN1Plus v1.30,2013-05-11 16:38:00,
2013-05-11 12:43:00,73.4,62.4,29.80,WSW,246,5.9,6.7,69,0.00,,,0.01,WX3IN1Plus v1.30,2013-05-11 16:43:00,
2013-05-11 12:48:00,73.7,62.7,29.80,West,260,0.0,9.1,69,0.00,,,0.01,WX3IN1Plus v1.30,2013-05-11 16:48:00,
2013-05-11 12:53:00,73.3,62.0,29.80,NW,309,0.0,4.9,69,0.00,,,0.01,WX3IN1Plus v1.30,2013-05-11 16:53:00,
2013-05-11 12:58:00,73.4,62.4,29.80,West,277,1.3,6.4,69,0.00,,,0.01,WX3IN1Plus v1.30,2013-05-11 16:58:00,
2013-05-11 13:03:00,73.4,62.7,29.80,West,262,1.0,4.8,70,0.00,,,0.01,WX3IN1Plus v1.30,2013-05-11 17:03:00,
2013-05-11 13:08:00,73.3,62.4,29.80,SW,219,1.4,7.7,70,0.00,,,0.01,WX3IN1Plus v1.30,2013-05-11 17:08:00,
2013-05-11 13:13:00,73.6,62.9,29.79,West,274,5.2,5.2,70,0.00,,,0.01,WX3IN1Plus v1.30,2013-05-11 17:13:00,
2013-05-11 13:18:00,73.8,62.0,29.79,NNW,330,3.2,9.8,68,0.00,,,0.01,WX3IN1Plus v1.30,2013-05-11 17:18:00,
2013-05-11 13:23:00,74.1,62.4,29.79,WSW,247,1.9,6.5,68,0.00,,,0.01,WX3IN1Plus v1.30,2013-05-11 17:23:00,
2013-05-11 13:28:00,74.0,62.0,29.79,ESE,104,1.5,11.5,67,0.00,,,0.01,WX3IN1Plus v1.30,2013-05-11 17:28:00,
2013-05-11 13:33:00,74.2,61.5,29.79,ENE,78,1.7,10.5,66,0.00,,,0.01,WX3IN1Plus v1.30,2013-05-11 17:33:00,
2013-05-11 13:38:00,73.9,61.8,29.79,WSW,250,1.1,6.5,67,0.00,,,0.01,WX3IN1Plus v1.30,2013-05-11 17:38:00,
2013-05-11 13:43:00,73.9,62.0,29.79,NNW,327,3.4,5.6,68,0.00,,,0.01,WX3IN1Plus v1.30,2013-05-11 17:43:00,
2013-05-11 13:49:00,74.1,62.4,29.79,West,261,1.1,5.9,68,0.00,,,0.01,WX3IN1Plus v1.30,2013-05-11 17:49:00,
2013-05-11 13:54:00,74.4,62.4,29.79,SW,227,1.3,6.0,67,0.00,,,0.01,WX3IN1Plus v1.30,2013-05-11 17:54:00,
2013-05-11 13:59:00,74.8,61.8,29.79,North,355,3.4,4.3,65,0.00,,,0.01,WX3IN1Plus v1.30,2013-05-11 17:59:00,
2013-05-11 14:04:00,75.0,61.3,29.78,West,271,2.9,6.5,63,0.00,,,0.01,WX3IN1Plus v1.30,2013-05-11 18:04:00,
2013-05-11 14:09:00,75.0,62.4,29.78,SW,219,1.2,5.9,66,0.00,,,0.01,WX3IN1Plus v1.30,2013-05-11 18:09:00,
2013-05-11 14:14:00,74.9,62.4,29.78,West,264,6.3,7.0,66,0.00,,,0.01,WX3IN1Plus v1.30,2013-05-11 18:14:00,
2013-05-11 14:19:00,75.4,62.0,29.78,West,275,3.5,7.8,64,0.00,,,0.01,WX3IN1Plus v1.30,2013-05-11 18:19:00,
2013-05-11 14:24:00,75.9,62.4,29.78,West,271,1.6,4.2,64,0.00,,,0.01,WX3IN1Plus v1.30,2013-05-11 18:24:00,
2013-05-11 14:29:00,76.7,62.4,29.78,WNW,303,3.1,6.9,62,0.00,,,0.01,WX3IN1Plus v1.30,2013-05-11 18:29:00,
2013-05-11 14:34:00,77.0,62.4,29.78,NW,313,1.1,10.5,61,0.00,,,0.01,WX3IN1Plus v1.30,2013-05-11 18:34:00,
2013-05-11 14:39:00,77.1,60.9,29.78,West,261,0.8,6.6,58,0.00,,,0.01,WX3IN1Plus v1.30,2013-05-11 18:39:00,
2013-05-11 14:44:00,77.3,61.5,29.78,South,189,0.0,7.3,59,0.00,,,0.01,WX3IN1Plus v1.30,2013-05-11 18:44:00,
2013-05-11 14:49:00,77.2,62.0,29.78,West,261,0.0,4.3,60,0.00,,,0.01,WX3IN1Plus v1.30,2013-05-11 18:49:00,
2013-05-11 14:54:00,77.1,61.3,29.78,NNW,348,5.1,5.8,59,0.00,,,0.01,WX3IN1Plus v1.30,2013-05-11 18:54:00,
2013-05-11 14:59:00,76.9,61.5,29.77,SW,226,1.1,7.4,60,0.00,,,0.01,WX3IN1Plus v1.30,2013-05-11 18:59:00,
2013-05-11 15:04:00,77.3,61.3,29.76,SSW,213,0.0,4.2,58,0.00,,,0.01,WX3IN1Plus v1.30,2013-05-11 19:04:00,
2013-05-11 15:09:00,77.8,61.8,29.76,WSW,244,4.9,11.9,59,0.00,,,0.01,WX3IN1Plus v1.30,2013-05-11 19:09:00,
2013-05-11 15:14:00,77.9,60.8,29.76,NE,39,1.5,6.2,56,0.00,,,0.01,WX3IN1Plus v1.30,2013-05-11 19:14:00,
2013-05-11 15:19:00,78.1,60.4,29.76,West,278,1.3,4.2,55,0.00,,,0.01,WX3IN1Plus v1.30,2013-05-11 19:19:00,
2013-05-11 15:24:00,78.8,60.4,29.75,NNW,327,3.1,5.0,54,0.00,,,0.01,WX3IN1Plus v1.30,2013-05-11 19:24:00,
2013-05-11 15:29:00,79.1,59.3,29.76,NNW,340,1.8,8.7,51,0.00,,,0.01,WX3IN1Plus v1.30,2013-05-11 19:29:00,
2013-05-11 15:34:00,79.1,60.4,29.76,North,11,0.9,6.7,53,0.00,,,0.01,WX3IN1Plus v1.30,2013-05-11 19:34:00,
2013-05-11 15:39:00,79.0,58.8,29.75,NE,37,5.8,6.2,50,0.00,,,0.01,WX3IN1Plus v1.30,2013-05-11 19:39:00,
2013-05-11 15:44:00,79.0,59.9,29.75,WSW,257,3.1,6.7,52,0.00,,,0.01,WX3IN1Plus v1.30,2013-05-11 19:44:00,
2013-05-11 15:49:00,78.9,59.0,29.75,WSW,244,5.4,7.5,51,0.00,,,0.01,WX3IN1Plus v1.30,2013-05-11 19:49:00,
2013-05-11 15:54:00,78.4,59.0,29.75,SSW,203,0.0,6.8,52,0.00,,,0.01,WX3IN1Plus v1.30,2013-05-11 19:54:00,
2013-05-11 15:59:00,78.2,59.5,29.75,WSW,239,3.9,7.0,53,0.00,,,0.01,WX3IN1Plus v1.30,2013-05-11 19:59:00,
2013-05-11 16:04:00,78.1,59.5,29.75,West,281,1.9,8.5,53,0.00,,,0.01,WX3IN1Plus v1.30,2013-05-11 20:04:00,
2013-05-11 16:09:00,77.5,59.5,29.75,WSW,251,2.0,6.5,55,0.00,,,0.01,WX3IN1Plus v1.30,2013-05-11 20:09:00,
2013-05-11 16:14:00,77.7,60.4,29.75,SW,222,3.1,10.1,56,0.00,,,0.01,WX3IN1Plus v1.30,2013-05-11 20:14:00,
2013-05-11 16:19:00,77.8,60.9,29.75,WNW,286,1.6,6.8,57,0.00,,,0.01,WX3IN1Plus v1.30,2013-05-11 20:19:00,
2013-05-11 16:24:00,77.7,61.5,29.75,NW,306,0.9,7.2,58,0.00,,,0.01,WX3IN1Plus v1.30,2013-05-11 20:24:00,
2013-05-11 16:29:00,77.3,61.3,29.75,SW,236,1.1,5.9,58,0.00,,,0.01,WX3IN1Plus v1.30,2013-05-11 20:29:00,
2013-05-11 16:34:00,77.2,61.5,29.75,WSW,255,1.9,6.7,59,0.00,,,0.01,WX3IN1Plus v1.30,2013-05-11 20:34:00,
2013-05-11 16:39:00,77.3,60.0,29.75,SW,230,0.9,5.9,56,0.00,,,0.01,WX3IN1Plus v1.30,2013-05-11 20:39:00,
2013-05-11 16:44:00,77.3,61.3,29.74,WSW,243,2.7,2.7,58,0.00,,,0.01,WX3IN1Plus v1.30,2013-05-11 20:44:00,
2013-05-11 16:49:00,77.8,60.4,29.74,West,275,2.4,7.2,56,0.00,,,0.01,WX3IN1Plus v1.30,2013-05-11 20:49:00,
2013-05-11 16:54:00,78.2,60.9,29.74,WSW,246,0.9,5.0,56,0.00,,,0.01,WX3IN1Plus v1.30,2013-05-11 20:54:00,
2013-05-11 16:59:00,78.9,60.0,29.75,WSW,250,0.0,5.7,53,0.00,,,0.01,WX3IN1Plus v1.30,2013-05-11 20:59:00,
2013-05-11 17:04:00,78.1,59.0,29.74,NW,310,0.0,2.1,52,0.00,,,0.01,WX3IN1Plus v1.30,2013-05-11 21:04:00,
2013-05-11 17:09:00,77.8,58.4,29.75,WSW,237,0.0,4.5,52,0.00,,,0.01,WX3IN1Plus v1.30,2013-05-11 21:09:00,
2013-05-11 17:14:00,77.2,59.0,29.75,SW,223,0.0,2.9,54,0.00,,,0.01,WX3IN1Plus v1.30,2013-05-11 21:14:00,
2013-05-11 17:19:00,77.3,59.0,29.75,NE,49,0.5,3.0,54,0.00,,,0.01,WX3IN1Plus v1.30,2013-05-11 21:19:00,
2013-05-11 17:24:00,76.8,58.2,29.75,ENE,61,6.4,11.4,53,0.00,,,0.01,WX3IN1Plus v1.30,2013-05-11 21:24:00,
2013-05-11 17:29:00,76.1,55.9,29.75,NE,46,6.2,11.9,50,0.00,,,0.01,WX3IN1Plus v1.30,2013-05-11 21:29:00,
2013-05-11 17:34:00,74.9,56.4,29.75,ENE,57,3.2,9.6,53,0.00,,,0.01,WX3IN1Plus v1.30,2013-05-11 21:34:00,
2013-05-11 17:39:00,73.5,56.4,29.75,NE,45,6.5,12.4,56,0.00,,,0.01,WX3IN1Plus v1.30,2013-05-11 21:39:00,
2013-05-11 17:44:00,72.3,56.4,29.75,NNE,14,2.2,11.8,58,0.00,,,0.01,WX3IN1Plus v1.30,2013-05-11 21:44:00,
2013-05-11 17:49:00,71.1,57.0,29.75,NNW,345,2.7,9.2,62,0.00,,,0.01,WX3IN1Plus v1.30,2013-05-11 21:49:00,
2013-05-11 17:54:00,70.4,58.8,29.78,North,8,6.2,10.1,67,0.00,,,0.01,WX3IN1Plus v1.30,2013-05-11 21:54:00,
2013-05-11 17:59:00,67.7,59.5,29.78,NW,310,5.6,19.4,76,0.00,,,0.01,WX3IN1Plus v1.30,2013-05-11 21:59:00,
2013-05-11 18:04:00,65.0,59.0,29.77,North,355,8.1,12.6,82,0.00,,,0.01,WX3IN1Plus v1.30,2013-05-11 22:04:00,
2013-05-11 18:09:00,63.6,58.8,29.78,North,1,1.5,11.6,85,0.00,,,0.01,WX3IN1Plus v1.30,2013-05-11 22:09:00,
2013-05-11 18:14:00,63.1,58.4,29.77,ENE,67,3.4,7.7,86,0.00,,,0.01,WX3IN1Plus v1.30,2013-05-11 22:14:00,
2013-05-11 18:19:00,62.9,58.4,29.78,ENE,66,3.3,5.3,87,0.00,,,0.01,WX3IN1Plus v1.30,2013-05-11 22:19:00,
2013-05-11 18:24:00,63.1,58.8,29.78,ENE,59,2.4,4.7,87,0.00,,,0.01,WX3IN1Plus v1.30,2013-05-11 22:24:00,
2013-05-11 18:29:00,63.1,59.0,29.78,NE,47,0.0,3.4,88,0.00,,,0.01,WX3IN1Plus v1.30,2013-05-11 22:29:00,
2013-05-11 18:34:00,63.2,59.0,29.77,East,91,4.6,4.6,87,0.00,,,0.01,WX3IN1Plus v1.30,2013-05-11 22:34:00,
2013-05-11 18:39:00,63.3,59.5,29.77,NNE,15,3.1,4.7,89,0.00,,,0.01,WX3IN1Plus v1.30,2013-05-11 22:39:00,
2013-05-11 18:44:00,63.3,59.5,29.77,ENE,68,2.1,4.7,89,0.00,,,0.01,WX3IN1Plus v1.30,2013-05-11 22:44:00,
2013-05-11 18:49:00,63.7,59.9,29.77,NNE,18,1.7,2.9,88,0.00,,,0.01,WX3IN1Plus v1.30,2013-05-11 22:49:00,
2013-05-11 18:54:00,63.7,59.9,29.78,NW,324,0.0,3.4,88,0.00,,,0.01,WX3IN1Plus v1.30,2013-05-11 22:54:00,
2013-05-11 18:59:00,63.7,59.9,29.78,South,191,0.0,1.6,88,0.00,,,0.01,WX3IN1Plus v1.30,2013-05-11 22:59:00,
2013-05-11 19:04:00,63.8,59.9,29.78,South,191,0.0,0.0,88,0.00,,,0.01,WX3IN1Plus v1.30,2013-05-11 23:04:00,
2013-05-11 19:09:00,64.2,60.0,29.78,South,191,0.0,0.0,88,0.00,,,0.01,WX3IN1Plus v1.30,2013-05-11 23:09:00,
2013-05-11 19:14:00,64.1,60.0,29.77,South,191,0.0,0.0,88,0.00,,,0.01,WX3IN1Plus v1.30,2013-05-11 23:14:00,
2013-05-11 19:19:00,64.2,60.0,29.77,South,191,0.0,0.0,88,0.00,,,0.01,WX3IN1Plus v1.30,2013-05-11 23:19:00,
2013-05-11 19:24:00,64.3,60.0,29.78,South,191,0.0,0.0,88,0.00,,,0.01,WX3IN1Plus v1.30,2013-05-11 23:24:00,
2013-05-11 19:29:00,64.3,60.4,29.78,South,191,0.0,0.0,89,0.00,,,0.01,WX3IN1Plus v1.30,2013-05-11 23:29:00,
2013-05-11 19:34:00,64.5,60.8,29.77,South,191,0.0,0.0,89,0.00,,,0.01,WX3IN1Plus v1.30,2013-05-11 23:34:00,
2013-05-11 19:39:00,64.4,60.9,29.77,South,191,0.0,0.0,90,0.00,,,0.01,WX3IN1Plus v1.30,2013-05-11 23:39:00,
2013-05-11 19:44:00,64.3,60.8,29.77,South,191,0.0,0.0,90,0.00,,,0.01,WX3IN1Plus v1.30,2013-05-11 23:44:00,
2013-05-11 19:49:00,64.2,60.8,29.77,South,191,0.0,0.0,90,0.00,,,0.01,WX3IN1Plus v1.30,2013-05-11 23:49:00,
2013-05-11 19:54:00,64.3,60.8,29.77,South,191,0.0,0.0,90,0.00,,,0.01,WX3IN1Plus v1.30,2013-05-11 23:54:00,
2013-05-11 19:59:00,64.3,60.8,29.77,South,191,0.0,0.0,90,0.00,,,0.01,WX3IN1Plus v1.30,2013-05-11 23:59:00,
2013-05-11 20:04:00,64.2,60.8,29.78,South,191,0.0,0.0,90,0.00,,,0.01,WX3IN1Plus v1.30,2013-05-12 00:04:00,
2013-05-11 20:09:00,64.2,60.8,29.77,South,191,0.0,0.0,90,0.00,,,0.01,WX3IN1Plus v1.30,2013-05-12 00:09:00,
2013-05-11 20:14:00,64.0,60.4,29.76,South,191,0.0,0.0,90,0.00,,,0.01,WX3IN1Plus v1.30,2013-05-12 00:14:00,
2013-05-11 20:19:00,64.1,60.8,29.77,South,191,0.0,0.0,90,0.00,,,0.01,WX3IN1Plus v1.30,2013-05-12 00:19:00,
2013-05-11 20:24:00,64.0,60.0,29.77,South,191,0.0,0.0,89,0.00,,,0.01,WX3IN1Plus v1.30,2013-05-12 00:24:00,
2013-05-11 20:29:00,64.2,60.4,29.77,South,191,0.0,0.0,89,0.00,,,0.01,WX3IN1Plus v1.30,2013-05-12 00:29:00,
2013-05-11 20:34:00,63.8,60.0,29.78,North,352,0.0,0.9,89,0.00,,,0.01,WX3IN1Plus v1.30,2013-05-12 00:34:00,
2013-05-11 20:39:00,64.0,60.0,29.78,North,352,0.0,0.0,89,0.00,,,0.01,WX3IN1Plus v1.30,2013-05-12 00:39:00,
2013-05-11 20:44:00,63.9,60.0,29.78,North,352,0.0,0.0,89,0.00,,,0.01,WX3IN1Plus v1.30,2013-05-12 00:44:00,
2013-05-11 20:49:00,63.7,60.4,29.78,North,352,0.0,0.0,90,0.00,,,0.01,WX3IN1Plus v1.30,2013-05-12 00:49:00,
2013-05-11 20:54:00,64.1,60.8,29.78,North,352,0.0,0.0,90,0.00,,,0.01,WX3IN1Plus v1.30,2013-05-12 00:54:00,
2013-05-11 20:59:00,63.9,60.9,29.79,NNE,12,0.0,3.9,91,0.00,,,0.01,WX3IN1Plus v1.30,2013-05-12 00:59:00,
2013-05-11 21:04:00,64.1,61.3,29.80,NNE,12,0.0,0.0,91,0.00,,,0.01,WX3IN1Plus v1.30,2013-05-12 01:04:00,
2013-05-11 21:09:00,64.1,61.3,29.79,NNE,12,0.0,0.0,91,0.00,,,0.01,WX3IN1Plus v1.30,2013-05-12 01:09:00,
2013-05-11 21:14:00,64.1,61.3,29.79,NNE,12,0.3,0.3,91,0.00,,,0.01,WX3IN1Plus v1.30,2013-05-12 01:14:00,
2013-05-11 21:19:00,63.9,60.9,29.81,WSW,243,5.4,7.2,91,0.00,,,0.01,WX3IN1Plus v1.30,2013-05-12 01:19:00,
2013-05-11 21:24:00,63.9,60.9,29.82,WSW,237,3.7,8.2,91,0.00,,,0.01,WX3IN1Plus v1.30,2013-05-12 01:24:00,
2013-05-11 21:29:00,63.8,60.9,29.80,SW,219,0.0,4.0,91,0.00,,,0.01,WX3IN1Plus v1.30,2013-05-12 01:29:00,
2013-05-11 21:34:00,63.7,60.9,29.81,SW,219,0.0,0.0,91,0.00,,,0.01,WX3IN1Plus v1.30,2013-05-12 01:34:00,
2013-05-11 21:39:00,63.7,60.9,29.80,SW,219,0.0,0.0,91,0.00,,,0.01,WX3IN1Plus v1.30,2013-05-12 01:39:00,
2013-05-11 21:44:00,63.7,60.9,29.81,SW,219,0.0,0.0,91,0.00,,,0.01,WX3IN1Plus v1.30,2013-05-12 01:44:00,
2013-05-11 21:49:00,63.7,60.9,29.81,SW,219,0.0,0.0,91,0.00,,,0.01,WX3IN1Plus v1.30,2013-05-12 01:49:00,
2013-05-11 21:54:00,63.8,60.9,29.80,SW,219,0.0,0.0,91,0.00,,,0.01,WX3IN1Plus v1.30,2013-05-12 01:54:00,
2013-05-11 21:59:00,63.6,60.8,29.81,SW,219,0.0,0.0,91,0.00,,,0.01,WX3IN1Plus v1.30,2013-05-12 01:59:00,
2013-05-11 22:04:00,63.6,60.8,29.80,SW,219,0.0,0.0,91,0.00,,,0.01,WX3IN1Plus v1.30,2013-05-12 02:04:00,
2013-05-11 22:09:00,63.3,60.4,29.81,SW,219,0.0,0.0,91,0.00,,,0.01,WX3IN1Plus v1.30,2013-05-12 02:09:00,
2013-05-11 22:14:00,63.2,60.4,29.81,SW,219,0.0,0.0,91,0.00,,,0.01,WX3IN1Plus v1.30,2013-05-12 02:14:00,
2013-05-11 22:19:00,63.5,60.8,29.81,SW,219,0.0,0.0,91,0.00,,,0.01,WX3IN1Plus v1.30,2013-05-12 02:19:00,
2013-05-11 22:24:00,63.2,60.4,29.80,SW,219,0.0,0.0,91,0.00,,,0.01,WX3IN1Plus v1.30,2013-05-12 02:24:00,
2013-05-11 22:29:00,63.2,60.4,29.80,SW,219,0.0,0.0,91,0.00,,,0.01,WX3IN1Plus v1.30,2013-05-12 02:29:00,
2013-05-11 22:34:00,63.1,60.0,29.80,SW,219,0.0,0.0,91,0.00,,,0.01,WX3IN1Plus v1.30,2013-05-12 02:34:00,
2013-05-11 22:39:00,62.8,59.9,29.80,SW,219,0.0,0.0,91,0.00,,,0.01,WX3IN1Plus v1.30,2013-05-12 02:39:00,
2013-05-11 22:44:00,62.7,59.9,29.79,SW,219,0.0,0.0,91,0.00,,,0.01,WX3IN1Plus v1.30,2013-05-12 02:44:00,
2013-05-11 22:49:00,62.9,59.9,29.79,SW,219,0.0,0.0,91,0.00,,,0.01,WX3IN1Plus v1.30,2013-05-12 02:49:00,
2013-05-11 22:54:00,63.0,60.0,29.79,SW,219,0.0,0.0,91,0.00,,,0.01,WX3IN1Plus v1.30,2013-05-12 02:54:00,
2013-05-11 22:59:00,62.8,59.9,29.79,SW,219,0.0,0.0,91,0.00,,,0.01,WX3IN1Plus v1.30,2013-05-12 02:59:00,
2013-05-11 23:04:00,62.7,59.9,29.80,SW,219,0.0,0.0,91,0.00,,,0.01,WX3IN1Plus v1.30,2013-05-12 03:04:00,
2013-05-11 23:09:00,62.7,59.9,29.80,SW,219,0.0,0.0,91,0.00,,,0.01,WX3IN1Plus v1.30,2013-05-12 03:09:00,
2013-05-11 23:14:00,62.6,59.9,29.80,SW,219,0.0,0.0,91,0.00,,,0.01,WX3IN1Plus v1.30,2013-05-12 03:14:00,
2013-05-11 23:19:00,62.7,59.9,29.80,SW,219,0.0,0.0,91,0.00,,,0.01,WX3IN1Plus v1.30,2013-05-12 03:19:00,
2013-05-11 23:24:00,62.6,59.9,29.80,SW,219,0.0,0.0,91,0.00,,,0.01,WX3IN1Plus v1.30,2013-05-12 03:24:00,
2013-05-11 23:29:00,62.4,59.5,29.80,SW,219,0.0,0.0,91,0.00,,,0.01,WX3IN1Plus v1.30,2013-05-12 03:29:00,
2013-05-11 23:34:00,62.2,59.3,29.81,SW,219,0.0,0.0,91,0.00,,,0.01,WX3IN1Plus v1.30,2013-05-12 03:34:00,
2013-05-11 23:39:00,62.4,59.5,29.79,SW,219,0.0,0.0,91,0.00,,,0.01,WX3IN1Plus v1.30,2013-05-12 03:39:00,
2013-05-11 23:44:00,62.6,59.9,29.80,SW,219,0.0,0.0,91,0.00,,,0.01,WX3IN1Plus v1.30,2013-05-12 03:44:00,
2013-05-11 23:49:00,62.4,59.5,29.79,SW,219,0.0,0.0,91,0.00,,,0.01,WX3IN1Plus v1.30,2013-05-12 03:49:00,
2013-05-11 23:54:00,62.3,59.5,29.79,SW,219,0.0,0.0,91,0.00,,,0.00,WX3IN1Plus v1.30,2013-05-12 03:54:00,
2013-05-11 23:59:00,62.6,59.9,29.79,SW,219,0.0,0.0,91,0.00,,,0.00,WX3IN1Plus v1.30,2013-05-12 03:59:00,